Time,TemperatureF,DewpointF,PressureIn,WindDirection,WindDirectionDegrees,WindSpeedMPH,WindSpeedGustMPH,Humidity,HourlyPrecipIn,Conditions,Clouds,dailyrainin,SoftwareType,DateUTC
2013-07-22 00:03:00,54.4,54.1,29.89,WSW,252,15.0,17.0,99,0.00,,,0.00,WeatherCatV1.14B232,2013-07-22 07:03:00,
2013-07-22 00:08:00,54.5,54.5,29.89,West,262,15.0,20.0,100,0.00,,,0.00,WeatherCatV1.14B232,2013-07-22 07:08:00,
2013-07-22 00:13:00,54.5,54.5,29.89,WSW,242,17.0,17.0,100,0.00,,,0.00,WeatherCatV1.14B232,2013-07-22 07:13:00,
2013-07-22 00:18:00,54.5,54.5,29.89,WSW,239,14.0,16.0,100,0.00,,,0.00,WeatherCatV1.14B232,2013-07-22 07:18:00,
2013-07-22 00:23:00,54.5,54.5,29.89,WSW,246,10.0,16.0,100,0.00,,,0.00,WeatherCatV1.14B232,2013-07-22 07:23:00,
2013-07-22 00:28:00,54.6,54.6,29.89,WSW,251,18.0,18.0,100,0.00,,,0.00,WeatherCatV1.14B232,2013-07-22 07:28:00,
2013-07-22 00:33:00,54.5,54.5,29.89,WSW,256,13.0,16.0,100,0.00,,,0.00,WeatherCatV1.14B232,2013-07-22 07:33:00,
2013-07-22 00:38:00,54.4,54.4,29.88,SSW,212,15.0,20.0,100,0.00,,,0.00,WeatherCatV1.14B232,2013-07-22 07:38:00,
2013-07-22 00:43:00,54.4,54.4,29.88,WSW,256,16.0,21.0,100,0.00,,,0.00,WeatherCatV1.14B232,2013-07-22 07:43:00,
2013-07-22 00:48:00,54.4,54.4,29.89,West,274,14.0,25.0,100,0.00,,,0.00,WeatherCatV1.14B232,2013-07-22 07:48:00,
2013-07-22 00:53:00,54.4,54.4,29.89,WSW,250,15.0,20.0,100,0.00,,,0.00,WeatherCatV1.14B232,2013-07-22 07:53:00,
2013-07-22 00:58:00,54.5,54.5,29.89,SW,231,18.0,18.0,100,0.00,,,0.00,WeatherCatV1.14B232,2013-07-22 07:58:00,
2013-07-22 01:03:00,54.5,54.5,29.89,WSW,245,12.0,19.0,100,0.00,,,0.00,WeatherCatV1.14B232,2013-07-22 08:03:00,
2013-07-22 01:08:00,54.6,54.6,29.89,West,259,12.0,19.0,100,0.00,,,0.00,WeatherCatV1.14B232,2013-07-22 08:08:00,
2013-07-22 01:13:00,54.6,54.6,29.89,West,262,11.0,16.0,100,0.00,,,0.00,WeatherCatV1.14B232,2013-07-22 08:13:00,
2013-07-22 01:18:00,54.7,54.7,29.89,SSW,201,10.0,16.0,100,0.00,,,0.00,WeatherCatV1.14B232,2013-07-22 08:18:00,
2013-07-22 01:23:00,54.7,54.7,29.90,WSW,242,12.0,15.0,100,0.00,,,0.00,WeatherCatV1.14B232,2013-07-22 08:23:00,
2013-07-22 01:28:00,54.7,54.7,29.89,WSW,252,12.0,13.0,100,0.00,,,0.00,WeatherCatV1.14B232,2013-07-22 08:28:00,
2013-07-22 01:33:00,54.7,54.7,29.89,WSW,249,12.0,13.0,100,0.00,,,0.00,WeatherCatV1.14B232,2013-07-22 08:33:00,
2013-07-22 01:38:00,54.8,54.8,29.90,WSW,250,15.0,15.0,100,0.00,,,0.00,WeatherCatV1.14B232,2013-07-22 08:38:00,
2013-07-22 01:43:00,54.8,54.8,29.90,WSW,240,12.0,12.0,100,0.00,,,0.00,WeatherCatV1.14B232,2013-07-22 08:43:00,
2013-07-22 01:48:00,54.8,54.8,29.90,WSW,240,9.0,16.0,100,0.00,,,0.00,WeatherCatV1.14B232,2013-07-22 08:48:00,
2013-07-22 01:53:00,54.7,54.7,29.90,WSW,256,16.0,16.0,100,0.00,,,0.00,WeatherCatV1.14B232,2013-07-22 08:53:00,
2013-07-22 01:58:00,54.8,54.8,29.90,SW,235,11.0,17.0,100,0.00,,,0.00,WeatherCatV1.14B232,2013-07-22 08:58:00,
2013-07-22 02:03:00,54.8,54.8,29.90,WSW,242,8.0,18.0,100,0.00,,,0.00,WeatherCatV1.14B232,2013-07-22 09:03:00,
2013-07-22 02:08:00,54.8,54.8,29.90,West,259,11.0,17.0,100,0.00,,,0.00,WeatherCatV1.14B232,2013-07-22 09:08:00,
2013-07-22 02:13:00,54.8,54.8,29.90,WSW,257,11.0,19.0,100,0.00,,,0.00,WeatherCatV1.14B232,2013-07-22 09:13:00,
2013-07-22 02:18:00,54.8,54.8,29.90,West,271,12.0,14.0,100,0.00,,,0.00,WeatherCatV1.14B232,2013-07-22 09:18:00,
2013-07-22 02:23:00,54.9,54.9,29.90,WSW,253,15.0,18.0,100,0.00,,,0.00,WeatherCatV1.14B232,2013-07-22 09:23:00,
2013-07-22 02:28:00,55.0,55.0,29.89,WSW,251,15.0,17.0,100,0.00,,,0.00,WeatherCatV1.14B232,2013-07-22 09:28:00,
2013-07-22 02:33:00,55.0,55.0,29.90,WSW,255,13.0,18.0,100,0.00,,,0.00,WeatherCatV1.14B232,2013-07-22 09:33:00,
2013-07-22 02:38:00,55.1,55.1,29.90,SW,226,14.0,20.0,100,0.00,,,0.00,WeatherCatV1.14B232,2013-07-22 09:38:00,
2013-07-22 02:43:00,55.1,55.1,29.89,West,260,12.0,18.0,100,0.00,,,0.00,WeatherCatV1.14B232,2013-07-22 09:43:00,
2013-07-22 02:48:00,55.2,55.2,29.89,SW,221,11.0,16.0,100,0.00,,,0.00,WeatherCatV1.14B232,2013-07-22 09:48:00,
2013-07-22 02:53:00,55.2,55.2,29.90,West,261,13.0,15.0,100,0.00,,,0.00,WeatherCatV1.14B232,2013-07-22 09:53:00,
2013-07-22 02:58:00,55.3,55.3,29.89,WSW,258,12.0,18.0,100,0.00,,,0.00,WeatherCatV1.14B232,2013-07-22 09:58:00,
2013-07-22 03:03:00,55.4,55.4,29.89,WNW,282,10.0,19.0,100,0.00,,,0.00,WeatherCatV1.14B232,2013-07-22 10:03:00,
2013-07-22 03:08:00,55.4,55.4,29.89,WSW,247,12.0,14.0,100,0.00,,,0.00,WeatherCatV1.14B232,2013-07-22 10:08:00,
2013-07-22 03:13:00,55.5,55.5,29.89,WSW,258,11.0,15.0,100,0.00,,,0.00,WeatherCatV1.14B232,2013-07-22 10:13:00,
2013-07-22 03:18:00,55.5,55.5,29.89,WSW,251,7.0,15.0,100,0.00,,,0.00,WeatherCatV1.14B232,2013-07-22 10:18:00,
2013-07-22 03:23:00,55.6,55.6,29.90,West,266,8.0,16.0,100,0.00,,,0.00,WeatherCatV1.14B232,2013-07-22 10:23:00,
2013-07-22 03:28:00,55.5,55.5,29.89,WSW,244,10.0,15.0,100,0.00,,,0.00,WeatherCatV1.14B232,2013-07-22 10:28:00,
2013-07-22 03:33:00,55.6,55.6,29.89,West,266,10.0,13.0,100,0.00,,,0.00,WeatherCatV1.14B232,2013-07-22 10:33:00,
2013-07-22 03:38:00,55.6,55.6,29.89,WSW,245,11.0,13.0,100,0.00,,,0.00,WeatherCatV1.14B232,2013-07-22 10:38:00,
2013-07-22 03:43:00,55.5,55.5,29.89,WSW,249,13.0,17.0,100,0.00,,,0.00,WeatherCatV1.14B232,2013-07-22 10:43:00,
2013-07-22 03:48:00,55.4,55.4,29.89,West,262,10.0,16.0,100,0.00,,,0.00,WeatherCatV1.14B232,2013-07-22 10:48:00,
2013-07-22 03:53:00,55.4,55.4,29.90,WSW,246,10.0,14.0,100,0.00,,,0.00,WeatherCatV1.14B232,2013-07-22 10:53:00,
2013-07-22 03:58:00,55.4,55.4,29.90,WSW,248,7.0,11.0,100,0.00,,,0.00,WeatherCatV1.14B232,2013-07-22 10:58:00,
2013-07-22 04:03:00,55.4,55.4,29.90,SW,236,11.0,17.0,100,0.00,,,0.00,WeatherCatV1.14B232,2013-07-22 11:03:00,
2013-07-22 04:08:00,55.5,55.5,29.90,SW,228,11.0,11.0,100,0.00,,,0.00,WeatherCatV1.14B232,2013-07-22 11:08:00,
2013-07-22 04:13:00,55.5,55.5,29.90,WSW,248,7.0,14.0,100,0.00,,,0.00,WeatherCatV1.14B232,2013-07-22 11:13:00,
2013-07-22 04:18:00,55.6,55.6,29.90,SSW,210,8.0,10.0,100,0.00,,,0.00,WeatherCatV1.14B232,2013-07-22 11:18:00,
2013-07-22 04:23:00,55.6,55.6,29.90,SW,230,6.0,13.0,100,0.00,,,0.00,WeatherCatV1.14B232,2013-07-22 11:23:00,
2013-07-22 04:28:00,55.6,55.6,29.90,SW,233,11.0,12.0,100,0.00,,,0.00,WeatherCatV1.14B232,2013-07-22 11:28:00,
2013-07-22 04:33:00,55.6,55.6,29.90,WSW,240,9.0,12.0,100,0.00,,,0.00,WeatherCatV1.14B232,2013-07-22 11:33:00,
2013-07-22 04:38:00,55.7,55.7,29.90,WSW,255,5.0,9.0,100,0.00,,,0.00,WeatherCatV1.14B232,2013-07-22 11:38:00,
2013-07-22 04:44:00,55.7,55.7,29.90,SSW,211,6.0,8.0,100,0.00,,,0.00,WeatherCatV1.14B232,2013-07-22 11:44:00,
2013-07-22 04:49:00,55.8,55.8,29.90,WSW,247,5.0,8.0,100,0.00,,,0.00,WeatherCatV1.14B232,2013-07-22 11:49:00,
2013-07-22 04:54:00,55.8,55.8,29.90,West,259,3.0,11.0,100,0.00,,,0.00,WeatherCatV1.14B232,2013-07-22 11:54:00,
2013-07-22 04:59:00,55.8,55.8,29.90,WSW,258,5.0,10.0,100,0.00,,,0.00,WeatherCatV1.14B232,2013-07-22 11:59:00,
2013-07-22 05:04:00,55.8,55.8,29.90,WSW,250,8.0,11.0,100,0.00,,,0.00,WeatherCatV1.14B232,2013-07-22 12:04:00,
2013-07-22 05:09:00,55.8,55.8,29.90,WSW,250,7.0,10.0,100,0.00,,,0.00,WeatherCatV1.14B232,2013-07-22 12:09:00,
2013-07-22 05:14:00,55.7,55.7,29.91,WSW,252,7.0,8.0,100,0.00,,,0.00,WeatherCatV1.14B232,2013-07-22 12:14:00,
2013-07-22 05:19:00,55.8,55.8,29.91,WSW,241,6.0,10.0,100,0.00,,,0.00,WeatherCatV1.14B232,2013-07-22 12:19:00,
2013-07-22 05:24:00,55.7,55.7,29.91,WSW,250,7.0,9.0,100,0.00,,,0.00,WeatherCatV1.14B232,2013-07-22 12:24:00,
2013-07-22 05:29:00,55.8,55.8,29.91,WSW,257,7.0,11.0,100,0.00,,,0.00,WeatherCatV1.14B232,2013-07-22 12:29:00,
2013-07-22 05:34:00,55.9,55.9,29.91,WSW,241,7.0,10.0,100,0.00,,,0.00,WeatherCatV1.14B232,2013-07-22 12:34:00,
2013-07-22 05:39:00,55.9,55.9,29.91,SW,222,5.0,9.0,100,0.00,,,0.00,WeatherCatV1.14B232,2013-07-22 12:39:00,
2013-07-22 05:44:00,56.0,56.0,29.91,WSW,253,6.0,10.0,100,0.00,,,0.00,WeatherCatV1.14B232,2013-07-22 12:44:00,
2013-07-22 05:49:00,56.0,56.0,29.91,WSW,240,6.0,10.0,100,0.00,,,0.00,WeatherCatV1.14B232,2013-07-22 12:49:00,
2013-07-22 05:54:00,56.0,56.0,29.91,SW,232,7.0,9.0,100,0.00,,,0.00,WeatherCatV1.14B232,2013-07-22 12:54:00,
2013-07-22 05:59:00,56.0,56.0,29.92,SW,235,8.0,8.0,100,0.00,,,0.00,WeatherCatV1.14B232,2013-07-22 12:59:00,
2013-07-22 06:04:00,56.0,56.0,29.92,WSW,257,6.0,10.0,100,0.00,,,0.00,WeatherCatV1.14B232,2013-07-22 13:04:00,
2013-07-22 06:09:00,56.0,56.0,29.92,WSW,242,7.0,8.0,100,0.00,,,0.00,WeatherCatV1.14B232,2013-07-22 13:09:00,
2013-07-22 06:14:00,56.1,56.1,29.92,West,259,4.0,9.0,100,0.00,,,0.00,WeatherCatV1.14B232,2013-07-22 13:14:00,
2013-07-22 06:19:00,56.0,56.0,29.93,WSW,255,5.0,9.0,100,0.00,,,0.00,WeatherCatV1.14B232,2013-07-22 13:19:00,
2013-07-22 06:24:00,56.0,56.0,29.93,WSW,257,7.0,9.0,100,0.00,,,0.00,WeatherCatV1.14B232,2013-07-22 13:24:00,
2013-07-22 06:29:00,56.1,56.1,29.93,West,281,6.0,11.0,100,0.00,,,0.00,WeatherCatV1.14B232,2013-07-22 13:29:00,
2013-07-22 06:34:00,56.1,56.1,29.93,WSW,238,5.0,8.0,100,0.00,,,0.00,WeatherCatV1.14B232,2013-07-22 13:34:00,
2013-07-22 06:39:00,56.1,56.1,29.94,SW,227,5.0,7.0,100,0.00,,,0.00,WeatherCatV1.14B232,2013-07-22 13:39:00,
2013-07-22 06:44:00,56.1,56.1,29.94,WSW,254,5.0,9.0,100,0.00,,,0.00,WeatherCatV1.14B232,2013-07-22 13:44:00,
2013-07-22 06:49:00,56.2,56.2,29.93,WSW,245,7.0,8.0,100,0.00,,,0.00,WeatherCatV1.14B232,2013-07-22 13:49:00,
2013-07-22 06:54:00,56.2,56.2,29.93,WSW,243,9.0,9.0,100,0.00,,,0.00,WeatherCatV1.14B232,2013-07-22 13:54:00,
2013-07-22 06:59:00,56.2,56.2,29.93,WSW,252,7.0,10.0,100,0.00,,,0.00,WeatherCatV1.14B232,2013-07-22 13:59:00,
2013-07-22 07:04:00,56.3,56.3,29.94,West,259,6.0,13.0,100,0.00,,,0.00,WeatherCatV1.14B232,2013-07-22 14:04:00,
2013-07-22 07:09:00,56.3,56.3,29.94,WSW,246,6.0,10.0,100,0.00,,,0.00,WeatherCatV1.14B232,2013-07-22 14:09:00,
2013-07-22 07:14:00,56.4,56.4,29.94,WSW,255,4.0,7.0,100,0.00,,,0.00,WeatherCatV1.14B232,2013-07-22 14:14:00,
2013-07-22 07:19:00,56.4,56.4,29.94,WSW,257,8.0,9.0,100,0.00,,,0.00,WeatherCatV1.14B232,2013-07-22 14:19:00,
2013-07-22 07:24:00,56.5,56.5,29.95,WSW,256,6.0,8.0,100,0.00,,,0.00,WeatherCatV1.14B232,2013-07-22 14:24:00,
2013-07-22 07:29:00,56.6,56.6,29.95,WSW,254,4.0,8.0,100,0.00,,,0.00,WeatherCatV1.14B232,2013-07-22 14:29:00,
2013-07-22 07:34:00,56.6,56.6,29.95,WSW,243,5.0,8.0,100,0.00,,,0.00,WeatherCatV1.14B232,2013-07-22 14:34:00,
2013-07-22 07:39:00,56.7,56.7,29.94,WSW,256,3.0,6.0,100,0.00,,,0.00,WeatherCatV1.14B232,2013-07-22 14:39:00,
2013-07-22 07:44:00,56.8,56.8,29.95,West,265,4.0,8.0,100,0.00,,,0.00,WeatherCatV1.14B232,2013-07-22 14:44:00,
2013-07-22 07:49:00,56.9,56.9,29.94,WSW,253,8.0,9.0,100,0.00,,,0.00,WeatherCatV1.14B232,2013-07-22 14:49:00,
2013-07-22 07:54:00,56.9,56.9,29.95,SSW,198,6.0,7.0,100,0.00,,,0.00,WeatherCatV1.14B232,2013-07-22 14:54:00,
2013-07-22 07:59:00,57.0,57.0,29.95,West,271,5.0,6.0,100,0.00,,,0.00,WeatherCatV1.14B232,2013-07-22 14:59:00,
2013-07-22 08:04:00,57.1,57.1,29.95,WSW,240,6.0,6.0,100,0.00,,,0.00,WeatherCatV1.14B232,2013-07-22 15:04:00,
2013-07-22 08:09:00,57.2,57.2,29.95,WSW,252,4.0,7.0,100,0.00,,,0.00,WeatherCatV1.14B232,2013-07-22 15:09:00,
2013-07-22 08:14:00,57.2,57.2,29.95,WSW,254,4.0,8.0,100,0.00,,,0.00,WeatherCatV1.14B232,2013-07-22 15:14:00,
2013-07-22 08:19:00,57.2,57.2,29.95,WSW,256,6.0,9.0,100,0.00,,,0.00,WeatherCatV1.14B232,2013-07-22 15:19:00,
2013-07-22 08:24:00,57.4,57.4,29.95,WSW,254,8.0,9.0,100,0.00,,,0.00,WeatherCatV1.14B232,2013-07-22 15:24:00,
2013-07-22 08:29:00,57.3,57.3,29.95,SW,225,7.0,7.0,100,0.00,,,0.00,WeatherCatV1.14B232,2013-07-22 15:29:00,
2013-07-22 08:34:00,57.5,57.5,29.95,WSW,244,9.0,9.0,100,0.00,,,0.00,WeatherCatV1.14B232,2013-07-22 15:34:00,
2013-07-22 08:39:00,57.5,57.5,29.95,WSW,239,9.0,9.0,100,0.00,,,0.00,WeatherCatV1.14B232,2013-07-22 15:39:00,
2013-07-22 08:44:00,57.7,57.7,29.95,WSW,251,5.0,9.0,100,0.00,,,0.00,WeatherCatV1.14B232,2013-07-22 15:44:00,
2013-07-22 08:49:00,57.8,57.8,29.95,WSW,250,6.0,7.0,100,0.00,,,0.00,WeatherCatV1.14B232,2013-07-22 15:49:00,
2013-07-22 08:54:00,57.8,57.8,29.95,West,260,3.0,5.0,100,0.00,,,0.00,WeatherCatV1.14B232,2013-07-22 15:54:00,
2013-07-22 08:59:00,58.0,58.0,29.95,SW,223,7.0,8.0,100,0.00,,,0.00,WeatherCatV1.14B232,2013-07-22 15:59:00,
2013-07-22 09:04:00,58.1,58.1,29.95,WSW,238,6.0,9.0,100,0.00,,,0.00,WeatherCatV1.14B232,2013-07-22 16:04:00,
2013-07-22 09:09:00,58.2,58.2,29.95,WSW,250,4.0,7.0,100,0.00,,,0.00,WeatherCatV1.14B232,2013-07-22 16:09:00,
2013-07-22 09:14:00,58.2,58.2,29.95,WSW,253,5.0,11.0,100,0.00,,,0.00,WeatherCatV1.14B232,2013-07-22 16:14:00,
2013-07-22 09:19:00,58.4,58.4,29.95,SW,221,7.0,12.0,100,0.00,,,0.00,WeatherCatV1.14B232,2013-07-22 16:19:00,
2013-07-22 09:24:00,58.4,58.4,29.95,WSW,250,6.0,10.0,100,0.00,,,0.00,WeatherCatV1.14B232,2013-07-22 16:24:00,
2013-07-22 09:29:00,58.5,58.5,29.95,WSW,241,8.0,11.0,100,0.00,,,0.00,WeatherCatV1.14B232,2013-07-22 16:29:00,
2013-07-22 09:34:00,58.7,58.7,29.95,SW,228,5.0,10.0,100,0.00,,,0.00,WeatherCatV1.14B232,2013-07-22 16:34:00,
2013-07-22 09:39:00,58.7,58.7,29.95,SSW,209,6.0,10.0,100,0.00,,,0.00,WeatherCatV1.14B232,2013-07-22 16:39:00,
2013-07-22 09:44:00,58.6,58.6,29.95,West,264,6.0,11.0,100,0.00,,,0.00,WeatherCatV1.14B232,2013-07-22 16:44:00,
2013-07-22 09:49:00,59.0,59.0,29.95,SW,235,7.0,12.0,100,0.00,,,0.00,WeatherCatV1.14B232,2013-07-22 16:49:00,
2013-07-22 09:54:00,58.9,58.9,29.95,WSW,253,9.0,9.0,100,0.00,,,0.00,WeatherCatV1.14B232,2013-07-22 16:54:00,
2013-07-22 09:59:00,59.0,59.0,29.95,SW,235,4.0,10.0,100,0.00,,,0.00,WeatherCatV1.14B232,2013-07-22 16:59:00,
2013-07-22 10:04:00,59.3,59.3,29.95,SW,229,8.0,9.0,100,0.00,,,0.00,WeatherCatV1.14B232,2013-07-22 17:04:00,
2013-07-22 10:09:00,59.3,59.3,29.95,WSW,252,7.0,10.0,100,0.00,,,0.00,WeatherCatV1.14B232,2013-07-22 17:09:00,
2013-07-22 10:14:00,59.3,59.3,29.95,WSW,248,6.0,11.0,100,0.00,,,0.00,WeatherCatV1.14B232,2013-07-22 17:14:00,
2013-07-22 10:19:00,59.4,59.4,29.95,SW,219,9.0,12.0,100,0.00,,,0.00,WeatherCatV1.14B232,2013-07-22 17:19:00,
2013-07-22 10:24:00,59.7,59.7,29.95,WSW,246,7.0,10.0,100,0.00,,,0.00,WeatherCatV1.14B232,2013-07-22 17:24:00,
2013-07-22 10:29:00,59.7,59.7,29.95,SW,232,6.0,9.0,100,0.00,,,0.00,WeatherCatV1.14B232,2013-07-22 17:29:00,
2013-07-22 10:34:00,59.8,59.8,29.95,SW,220,11.0,11.0,100,0.00,,,0.00,WeatherCatV1.14B232,2013-07-22 17:34:00,
2013-07-22 10:39:00,59.8,59.8,29.95,WSW,256,8.0,12.0,100,0.00,,,0.00,WeatherCatV1.14B232,2013-07-22 17:39:00,
2013-07-22 10:44:00,60.1,60.1,29.95,WSW,246,11.0,11.0,100,0.00,,,0.00,WeatherCatV1.14B232,2013-07-22 17:44:00,
2013-07-22 10:49:00,60.1,59.8,29.95,West,259,7.0,12.0,99,0.00,,,0.00,WeatherCatV1.14B232,2013-07-22 17:49:00,
2013-07-22 10:54:00,60.2,59.9,29.95,South,180,7.0,12.0,99,0.00,,,0.00,WeatherCatV1.14B232,2013-07-22 17:54:00,
2013-07-22 10:59:00,60.6,60.3,29.96,WSW,254,4.0,8.0,99,0.00,,,0.00,WeatherCatV1.14B232,2013-07-22 17:59:00,
2013-07-22 11:04:00,60.6,60.0,29.96,SW,233,10.0,13.0,98,0.00,,,0.00,WeatherCatV1.14B232,2013-07-22 18:04:00,
2013-07-22 11:09:00,60.9,60.3,29.96,WSW,249,11.0,12.0,98,0.00,,,0.00,WeatherCatV1.14B232,2013-07-22 18:09:00,
2013-07-22 11:14:00,60.8,60.2,29.95,WSW,250,6.0,12.0,98,0.00,,,0.00,WeatherCatV1.14B232,2013-07-22 18:14:00,
2013-07-22 11:19:00,60.9,60.0,29.95,WSW,239,10.0,12.0,97,0.00,,,0.00,WeatherCatV1.14B232,2013-07-22 18:19:00,
2013-07-22 11:24:00,61.1,60.2,29.95,WSW,252,8.0,12.0,97,0.00,,,0.00,WeatherCatV1.14B232,2013-07-22 18:24:00,
2013-07-22 11:29:00,61.4,60.0,29.95,SSW,211,11.0,14.0,95,0.00,,,0.00,WeatherCatV1.14B232,2013-07-22 18:29:00,
2013-07-22 11:34:00,61.6,60.2,29.95,WSW,247,5.0,10.0,95,0.00,,,0.00,WeatherCatV1.14B232,2013-07-22 18:34:00,
2013-07-22 11:39:00,61.4,59.7,29.95,WSW,250,7.0,14.0,94,0.00,,,0.00,WeatherCatV1.14B232,2013-07-22 18:39:00,
2013-07-22 11:44:00,61.3,59.6,29.95,WSW,250,11.0,16.0,94,0.00,,,0.00,WeatherCatV1.14B232,2013-07-22 18:44:00,
2013-07-22 11:49:00,61.2,59.5,29.95,WSW,245,9.0,12.0,94,0.00,,,0.00,WeatherCatV1.14B232,2013-07-22 18:49:00,
2013-07-22 11:54:00,61.3,59.6,29.95,WSW,237,13.0,15.0,94,0.00,,,0.00,WeatherCatV1.14B232,2013-07-22 18:54:00,
2013-07-22 11:59:00,61.2,59.2,29.95,West,264,10.0,16.0,93,0.00,,,0.00,WeatherCatV1.14B232,2013-07-22 18:59:00,
2013-07-22 12:04:00,61.4,59.4,29.95,WNW,285,7.0,16.0,93,0.00,,,0.00,WeatherCatV1.14B232,2013-07-22 19:04:00,
2013-07-22 12:09:00,61.5,59.5,29.95,WSW,243,10.0,14.0,93,0.00,,,0.00,WeatherCatV1.14B232,2013-07-22 19:09:00,
2013-07-22 12:14:00,61.5,59.5,29.95,SW,215,8.0,14.0,93,0.00,,,0.00,WeatherCatV1.14B232,2013-07-22 19:14:00,
2013-07-22 12:19:00,62.2,59.8,29.95,WSW,253,12.0,14.0,92,0.00,,,0.00,WeatherCatV1.14B232,2013-07-22 19:19:00,
2013-07-22 12:24:00,62.9,60.2,29.95,WSW,257,15.0,15.0,91,0.00,,,0.00,WeatherCatV1.14B232,2013-07-22 19:24:00,
2013-07-22 12:29:00,63.2,60.2,29.94,WSW,255,7.0,15.0,90,0.00,,,0.00,WeatherCatV1.14B232,2013-07-22 19:29:00,
2013-07-22 12:34:00,63.6,60.3,29.94,SW,235,14.0,16.0,89,0.00,,,0.00,WeatherCatV1.14B232,2013-07-22 19:34:00,
2013-07-22 12:39:00,64.1,60.5,29.94,WSW,245,11.0,16.0,88,0.00,,,0.00,WeatherCatV1.14B232,2013-07-22 19:39:00,
2013-07-22 12:44:00,64.4,60.8,29.94,WSW,248,9.0,16.0,88,0.00,,,0.00,WeatherCatV1.14B232,2013-07-22 19:44:00,
2013-07-22 12:49:00,64.8,60.8,29.94,South,189,9.0,15.0,87,0.00,,,0.00,WeatherCatV1.14B232,2013-07-22 19:49:00,
2013-07-22 12:54:00,65.1,60.8,29.95,WSW,248,11.0,15.0,86,0.00,,,0.00,WeatherCatV1.14B232,2013-07-22 19:54:00,
2013-07-22 12:59:00,64.6,60.3,29.95,WSW,257,13.0,17.0,86,0.00,,,0.00,WeatherCatV1.14B232,2013-07-22 19:59:00,
2013-07-22 13:04:00,65.1,60.8,29.95,WSW,257,12.0,16.0,86,0.00,,,0.00,WeatherCatV1.14B232,2013-07-22 20:04:00,
2013-07-22 13:09:00,65.0,60.4,29.95,WSW,239,13.0,19.0,85,0.00,,,0.00,WeatherCatV1.14B232,2013-07-22 20:09:00,
2013-07-22 13:14:00,65.1,60.8,29.95,SW,224,16.0,17.0,86,0.00,,,0.00,WeatherCatV1.14B232,2013-07-22 20:14:00,
2013-07-22 13:17:00,65.2,60.9,29.94,WSW,243,15.0,17.0,86,0.00,,,0.00,WeatherCatV1.14B232,2013-07-22 20:17:00,
2013-07-22 13:22:00,65.3,60.7,29.95,WSW,258,11.0,17.0,85,0.00,,,0.00,WeatherCatV1.14B232,2013-07-22 20:22:00,
2013-07-22 13:27:00,65.9,60.9,29.94,WSW,247,10.0,17.0,84,0.00,,,0.00,WeatherCatV1.14B232,2013-07-22 20:27:00,
2013-07-22 13:32:00,66.1,60.8,29.94,SSW,201,11.0,18.0,83,0.00,,,0.00,WeatherCatV1.14B232,2013-07-22 20:32:00,
2013-07-22 13:37:00,66.3,60.6,29.94,WSW,256,17.0,20.0,82,0.00,,,0.00,WeatherCatV1.14B232,2013-07-22 20:37:00,
2013-07-22 13:38:00,66.2,60.9,29.94,West,259,14.0,20.0,83,0.00,,,0.00,WeatherCatV1.14B232,2013-07-22 20:38:00,
2013-07-22 13:42:00,66.3,61.0,29.94,WSW,256,12.0,19.0,83,0.00,,,0.00,WeatherCatV1.14B232,2013-07-22 20:42:00,
2013-07-22 13:47:00,65.7,60.7,29.94,WSW,250,16.0,20.0,84,0.00,,,0.00,WeatherCatV1.14B232,2013-07-22 20:47:00,
2013-07-22 13:52:00,65.8,60.5,29.94,SW,230,21.0,21.0,83,0.00,,,0.00,WeatherCatV1.14B232,2013-07-22 20:52:00,
2013-07-22 13:57:00,65.8,60.5,29.94,WSW,237,17.0,19.0,83,0.00,,,0.00,WeatherCatV1.14B232,2013-07-22 20:57:00,
2013-07-22 14:02:00,65.8,60.5,29.94,West,262,17.0,18.0,83,0.00,,,0.00,WeatherCatV1.14B232,2013-07-22 21:02:00,
2013-07-22 14:07:00,65.8,60.5,29.94,WSW,245,21.0,22.0,83,0.00,,,0.00,WeatherCatV1.14B232,2013-07-22 21:07:00,
2013-07-22 14:12:00,65.7,60.4,29.94,WSW,250,17.0,21.0,83,0.00,,,0.00,WeatherCatV1.14B232,2013-07-22 21:12:00,
2013-07-22 14:17:00,65.9,60.9,29.93,WSW,238,16.0,20.0,84,0.00,,,0.00,WeatherCatV1.14B232,2013-07-22 21:17:00,
2013-07-22 14:22:00,65.8,60.5,29.93,WSW,243,15.0,22.0,83,0.00,,,0.00,WeatherCatV1.14B232,2013-07-22 21:22:00,
2013-07-22 14:27:00,65.8,60.8,29.93,SW,226,17.0,20.0,84,0.00,,,0.00,WeatherCatV1.14B232,2013-07-22 21:27:00,
2013-07-22 14:32:00,65.5,60.9,29.93,WSW,248,19.0,20.0,85,0.00,,,0.00,WeatherCatV1.14B232,2013-07-22 21:32:00,
2013-07-22 14:37:00,64.9,60.3,29.93,WSW,258,17.0,23.0,85,0.00,,,0.00,WeatherCatV1.14B232,2013-07-22 21:37:00,
2013-07-22 14:42:00,64.7,60.1,29.93,West,274,16.0,21.0,85,0.00,,,0.00,WeatherCatV1.14B232,2013-07-22 21:42:00,
2013-07-22 14:47:00,64.1,59.8,29.93,SW,222,15.0,25.0,86,0.00,,,0.00,WeatherCatV1.14B232,2013-07-22 21:47:00,
2013-07-22 14:52:00,63.8,59.9,29.93,SW,223,18.0,22.0,87,0.00,,,0.00,WeatherCatV1.14B232,2013-07-22 21:52:00,
2013-07-22 14:57:00,63.6,59.7,29.93,WSW,250,20.0,25.0,87,0.00,,,0.00,WeatherCatV1.14B232,2013-07-22 21:57:00,
2013-07-22 15:02:00,63.5,59.6,29.93,SW,232,19.0,23.0,87,0.00,,,0.00,WeatherCatV1.14B232,2013-07-22 22:02:00,
2013-07-22 15:07:00,63.5,59.6,29.93,SW,236,14.0,20.0,87,0.00,,,0.00,WeatherCatV1.14B232,2013-07-22 22:07:00,
2013-07-22 15:12:00,63.6,59.7,29.93,West,259,18.0,21.0,87,0.00,,,0.00,WeatherCatV1.14B232,2013-07-22 22:12:00,
2013-07-22 15:17:00,63.6,59.7,29.93,WSW,240,17.0,20.0,87,0.00,,,0.00,WeatherCatV1.14B232,2013-07-22 22:17:00,
2013-07-22 15:22:00,63.7,59.4,29.93,SW,225,13.0,22.0,86,0.00,,,0.00,WeatherCatV1.14B232,2013-07-22 22:22:00,
2013-07-22 15:24:00,63.8,59.9,29.93,WSW,247,17.0,17.0,87,0.00,,,0.00,WeatherCatV1.14B232,2013-07-22 22:24:00,
2013-07-22 15:29:00,64.3,60.0,29.93,SW,234,11.0,17.0,86,0.00,,,0.00,WeatherCatV1.14B232,2013-07-22 22:29:00,
2013-07-22 15:34:00,64.4,59.8,29.93,SW,228,15.0,17.0,85,0.00,,,0.00,WeatherCatV1.14B232,2013-07-22 22:34:00,
2013-07-22 15:39:00,64.7,60.1,29.93,WSW,240,7.0,15.0,85,0.00,,,0.00,WeatherCatV1.14B232,2013-07-22 22:39:00,
2013-07-22 15:44:00,64.8,60.2,29.93,WSW,238,10.0,12.0,85,0.00,,,0.00,WeatherCatV1.14B232,2013-07-22 22:44:00,
2013-07-22 15:49:00,65.5,60.2,29.93,SW,217,9.0,14.0,83,0.00,,,0.00,WeatherCatV1.14B232,2013-07-22 22:49:00,
2013-07-22 15:54:00,66.1,60.4,29.93,WSW,245,10.0,16.0,82,0.00,,,0.00,WeatherCatV1.14B232,2013-07-22 22:54:00,
2013-07-22 15:59:00,66.3,60.3,29.93,WSW,244,11.0,16.0,81,0.00,,,0.00,WeatherCatV1.14B232,2013-07-22 22:59:00,
2013-07-22 16:04:00,66.3,60.3,29.93,SSW,209,4.0,13.0,81,0.00,,,0.00,WeatherCatV1.14B232,2013-07-22 23:04:00,
2013-07-22 16:09:00,65.7,60.0,29.92,SW,230,10.0,14.0,82,0.00,,,0.00,WeatherCatV1.14B232,2013-07-22 23:09:00,
2013-07-22 16:14:00,65.2,59.9,29.92,SW,235,9.0,16.0,83,0.00,,,0.00,WeatherCatV1.14B232,2013-07-22 23:14:00,
2013-07-22 16:19:00,65.0,60.0,29.92,WSW,238,8.0,12.0,84,0.00,,,0.00,WeatherCatV1.14B232,2013-07-22 23:19:00,
2013-07-22 16:24:00,64.7,59.7,29.92,SW,217,10.0,13.0,84,0.00,,,0.00,WeatherCatV1.14B232,2013-07-22 23:24:00,
2013-07-22 16:29:00,64.3,59.7,29.92,WSW,243,14.0,17.0,85,0.00,,,0.00,WeatherCatV1.14B232,2013-07-22 23:29:00,
2013-07-22 16:34:00,64.0,59.7,29.92,SW,234,13.0,16.0,86,0.00,,,0.00,WeatherCatV1.14B232,2013-07-22 23:34:00,
2013-07-22 16:39:00,63.6,59.3,29.92,SW,225,9.0,17.0,86,0.00,,,0.00,WeatherCatV1.14B232,2013-07-22 23:39:00,
2013-07-22 16:44:00,63.0,59.4,29.93,WSW,251,12.0,18.0,88,0.00,,,0.00,WeatherCatV1.14B232,2013-07-22 23:44:00,
2013-07-22 16:49:00,62.6,59.3,29.93,SW,235,13.0,16.0,89,0.00,,,0.00,WeatherCatV1.14B232,2013-07-22 23:49:00,
2013-07-22 16:54:00,62.7,59.4,29.93,WSW,238,13.0,17.0,89,0.00,,,0.00,WeatherCatV1.14B232,2013-07-22 23:54:00,
2013-07-22 16:59:00,63.0,59.7,29.93,West,268,13.0,15.0,89,0.00,,,0.00,WeatherCatV1.14B232,2013-07-22 23:59:00,
2013-07-22 17:04:00,62.9,59.6,29.93,West,264,11.0,19.0,89,0.00,,,0.00,WeatherCatV1.14B232,2013-07-23 00:04:00,
2013-07-22 17:09:00,62.5,59.2,29.93,WSW,237,9.0,13.0,89,0.00,,,0.00,WeatherCatV1.14B232,2013-07-23 00:09:00,
2013-07-22 17:14:00,62.1,59.1,29.93,West,270,8.0,16.0,90,0.00,,,0.00,WeatherCatV1.14B232,2013-07-23 00:14:00,
2013-07-22 17:19:00,61.7,59.0,29.93,SW,228,8.0,13.0,91,0.00,,,0.00,WeatherCatV1.14B232,2013-07-23 00:19:00,
2013-07-22 17:24:00,61.6,58.9,29.94,West,266,7.0,11.0,91,0.00,,,0.00,WeatherCatV1.14B232,2013-07-23 00:24:00,
2013-07-22 17:29:00,61.5,58.8,29.93,WSW,255,8.0,13.0,91,0.00,,,0.00,WeatherCatV1.14B232,2013-07-23 00:29:00,
2013-07-22 17:34:00,61.2,58.5,29.94,WSW,250,12.0,20.0,91,0.00,,,0.00,WeatherCatV1.14B232,2013-07-23 00:34:00,
2013-07-22 17:39:00,60.7,58.4,29.93,SW,235,18.0,19.0,92,0.00,,,0.00,WeatherCatV1.14B232,2013-07-23 00:39:00,
2013-07-22 17:44:00,60.3,58.3,29.93,SW,232,14.0,20.0,93,0.00,,,0.00,WeatherCatV1.14B232,2013-07-23 00:44:00,
2013-07-22 17:49:00,59.8,57.8,29.93,WSW,252,16.0,19.0,93,0.00,,,0.00,WeatherCatV1.14B232,2013-07-23 00:49:00,
2013-07-22 17:54:00,59.5,57.8,29.93,SW,229,15.0,16.0,94,0.00,,,0.00,WeatherCatV1.14B232,2013-07-23 00:54:00,
2013-07-22 17:59:00,59.5,58.1,29.94,WSW,248,10.0,12.0,95,0.00,,,0.00,WeatherCatV1.14B232,2013-07-23 00:59:00,
2013-07-22 18:04:00,59.6,58.2,29.93,SW,233,15.0,19.0,95,0.00,,,0.00,WeatherCatV1.14B232,2013-07-23 01:04:00,
2013-07-22 18:09:00,59.5,58.1,29.94,West,259,13.0,22.0,95,0.00,,,0.00,WeatherCatV1.14B232,2013-07-23 01:09:00,
2013-07-22 18:14:00,59.4,58.0,29.94,West,262,12.0,16.0,95,0.00,,,0.00,WeatherCatV1.14B232,2013-07-23 01:14:00,
2013-07-22 18:19:00,59.3,57.9,29.94,WSW,244,15.0,22.0,95,0.00,,,0.00,WeatherCatV1.14B232,2013-07-23 01:19:00,
2013-07-22 18:24:00,59.3,57.9,29.94,SSW,205,14.0,19.0,95,0.00,,,0.00,WeatherCatV1.14B232,2013-07-23 01:24:00,
2013-07-22 18:29:00,59.2,58.1,29.94,SSW,210,16.0,20.0,96,0.00,,,0.00,WeatherCatV1.14B232,2013-07-23 01:29:00,
2013-07-22 18:34:00,59.3,58.2,29.94,WSW,245,18.0,23.0,96,0.00,,,0.00,WeatherCatV1.14B232,2013-07-23 01:34:00,
2013-07-22 18:39:00,59.3,58.2,29.94,WSW,240,21.0,21.0,96,0.00,,,0.00,WeatherCatV1.14B232,2013-07-23 01:39:00,
2013-07-22 18:44:00,59.5,58.4,29.94,WSW,254,14.0,23.0,96,0.00,,,0.00,WeatherCatV1.14B232,2013-07-23 01:44:00,
2013-07-22 18:49:00,59.6,58.2,29.95,SW,227,19.0,20.0,95,0.00,,,0.00,WeatherCatV1.14B232,2013-07-23 01:49:00,
2013-07-22 18:54:00,59.5,58.1,29.95,SW,226,13.0,21.0,95,0.00,,,0.00,WeatherCatV1.14B232,2013-07-23 01:54:00,
2013-07-22 18:59:00,59.4,58.0,29.95,WSW,256,11.0,19.0,95,0.00,,,0.00,WeatherCatV1.14B232,2013-07-23 01:59:00,
2013-07-22 19:04:00,59.6,58.2,29.95,SW,217,10.0,18.0,95,0.00,,,0.00,WeatherCatV1.14B232,2013-07-23 02:04:00,
2013-07-22 19:09:00,59.8,58.4,29.95,WSW,242,12.0,16.0,95,0.00,,,0.00,WeatherCatV1.14B232,2013-07-23 02:09:00,
2013-07-22 19:14:00,60.1,58.4,29.94,SW,234,15.0,18.0,94,0.00,,,0.00,WeatherCatV1.14B232,2013-07-23 02:14:00,
2013-07-22 19:19:00,60.3,58.6,29.94,SW,228,17.0,19.0,94,0.00,,,0.00,WeatherCatV1.14B232,2013-07-23 02:19:00,
2013-07-22 19:24:00,60.7,58.7,29.94,SW,221,10.0,17.0,93,0.00,,,0.00,WeatherCatV1.14B232,2013-07-23 02:24:00,
2013-07-22 19:29:00,61.5,59.2,29.94,SW,219,10.0,19.0,92,0.00,,,0.00,WeatherCatV1.14B232,2013-07-23 02:29:00,
2013-07-22 19:34:00,61.6,58.9,29.94,SW,221,13.0,17.0,91,0.00,,,0.00,WeatherCatV1.14B232,2013-07-23 02:34:00,
2013-07-22 19:39:00,61.4,58.7,29.94,WSW,237,12.0,18.0,91,0.00,,,0.00,WeatherCatV1.14B232,2013-07-23 02:39:00,
2013-07-22 19:44:00,61.4,58.7,29.93,WSW,248,17.0,18.0,91,0.00,,,0.00,WeatherCatV1.14B232,2013-07-23 02:44:00,
2013-07-22 19:49:00,61.3,58.6,29.94,SW,233,17.0,20.0,91,0.00,,,0.00,WeatherCatV1.14B232,2013-07-23 02:49:00,
2013-07-22 19:54:00,61.5,58.8,29.93,SW,225,18.0,20.0,91,0.00,,,0.00,WeatherCatV1.14B232,2013-07-23 02:54:00,
2013-07-22 19:59:00,61.9,58.9,29.94,WSW,255,13.0,18.0,90,0.00,,,0.00,WeatherCatV1.14B232,2013-07-23 02:59:00,
2013-07-22 20:04:00,61.7,58.7,29.94,WSW,243,21.0,21.0,90,0.00,,,0.00,WeatherCatV1.14B232,2013-07-23 03:04:00,
2013-07-22 20:09:00,62.0,58.7,29.93,West,271,15.0,18.0,89,0.00,,,0.00,WeatherCatV1.14B232,2013-07-23 03:09:00,
2013-07-22 20:14:00,61.8,58.5,29.93,West,262,11.0,15.0,89,0.00,,,0.00,WeatherCatV1.14B232,2013-07-23 03:14:00,
2013-07-22 20:19:00,61.2,58.5,29.92,SW,223,11.0,17.0,91,0.00,,,0.00,WeatherCatV1.14B232,2013-07-23 03:19:00,
2013-07-22 20:24:00,61.3,58.6,29.92,West,264,9.0,16.0,91,0.00,,,0.00,WeatherCatV1.14B232,2013-07-23 03:24:00,
2013-07-22 20:29:00,61.1,58.4,29.92,West,278,11.0,16.0,91,0.00,,,0.00,WeatherCatV1.14B232,2013-07-23 03:29:00,
2013-07-22 20:34:00,61.2,58.2,29.92,WSW,257,13.0,15.0,90,0.00,,,0.00,WeatherCatV1.14B232,2013-07-23 03:34:00,
2013-07-22 20:39:00,61.1,58.1,29.93,SW,229,4.0,13.0,90,0.00,,,0.00,WeatherCatV1.14B232,2013-07-23 03:39:00,
2013-07-22 20:44:00,61.0,58.3,29.93,West,262,5.0,9.0,91,0.00,,,0.00,WeatherCatV1.14B232,2013-07-23 03:44:00,
2013-07-22 20:49:00,61.0,58.3,29.93,West,259,10.0,13.0,91,0.00,,,0.00,WeatherCatV1.14B232,2013-07-23 03:49:00,
2013-07-22 20:54:00,61.1,58.1,29.93,WSW,252,11.0,15.0,90,0.00,,,0.00,WeatherCatV1.14B232,2013-07-23 03:54:00,
2013-07-22 20:59:00,61.1,58.1,29.94,WSW,250,14.0,14.0,90,0.00,,,0.00,WeatherCatV1.14B232,2013-07-23 03:59:00,
2013-07-22 21:01:00,61.1,58.1,29.94,West,260,3.0,14.0,90,0.00,,,0.00,WeatherCatV1.14B232,2013-07-23 04:01:00,
2013-07-22 21:06:00,61.1,58.1,29.95,SW,229,2.0,10.0,90,0.00,,,0.00,WeatherCatV1.14B232,2013-07-23 04:06:00,
2013-07-22 21:11:00,61.0,58.0,29.94,WSW,244,2.0,9.0,90,0.00,,,0.00,WeatherCatV1.14B232,2013-07-23 04:11:00,
2013-07-22 21:14:00,60.9,57.9,29.94,WSW,242,4.0,6.0,90,0.00,,,0.00,WeatherCatV1.14B232,2013-07-23 04:14:00,
2013-07-22 21:19:00,60.7,58.1,29.95,WSW,258,8.0,9.0,91,0.00,,,0.00,WeatherCatV1.14B232,2013-07-23 04:19:00,
2013-07-22 21:24:00,60.7,58.1,29.95,South,181,7.0,11.0,91,0.00,,,0.00,WeatherCatV1.14B232,2013-07-23 04:24:00,
2013-07-22 21:29:00,60.6,58.0,29.95,WSW,254,10.0,14.0,91,0.00,,,0.00,WeatherCatV1.14B232,2013-07-23 04:29:00,
2013-07-22 21:34:00,60.5,57.9,29.94,WSW,248,13.0,16.0,91,0.00,,,0.00,WeatherCatV1.14B232,2013-07-23 04:34:00,
2013-07-22 21:35:00,60.5,57.9,29.95,West,259,12.0,16.0,91,0.00,,,0.00,WeatherCatV1.14B232,2013-07-23 04:35:00,
2013-07-22 21:40:00,60.3,57.7,29.95,West,263,7.0,12.0,91,0.00,,,0.00,WeatherCatV1.14B232,2013-07-23 04:40:00,
2013-07-22 21:45:00,60.3,57.7,29.97,SW,226,5.0,7.0,91,0.00,,,0.00,WeatherCatV1.14B232,2013-07-23 04:45:00,
2013-07-22 21:50:00,60.2,57.9,29.97,WSW,249,5.0,6.0,92,0.00,,,0.00,WeatherCatV1.14B232,2013-07-23 04:50:00,
2013-07-22 21:55:00,60.1,57.8,29.96,SW,219,7.0,9.0,92,0.00,,,0.00,WeatherCatV1.14B232,2013-07-23 04:55:00,
2013-07-22 22:00:00,60.2,57.9,29.97,WSW,245,7.0,10.0,92,0.00,,,0.00,WeatherCatV1.14B232,2013-07-23 05:00:00,
2013-07-22 22:05:00,60.2,57.9,29.96,WSW,245,10.0,12.0,92,0.00,,,0.00,WeatherCatV1.14B232,2013-07-23 05:05:00,
2013-07-22 22:10:00,60.2,57.9,29.96,SW,230,12.0,13.0,92,0.00,,,0.00,WeatherCatV1.14B232,2013-07-23 05:10:00,
2013-07-22 22:15:00,60.2,57.9,29.96,SW,231,8.0,11.0,92,0.00,,,0.00,WeatherCatV1.14B232,2013-07-23 05:15:00,
2013-07-22 22:20:00,60.1,57.8,29.97,WSW,255,9.0,12.0,92,0.00,,,0.00,WeatherCatV1.14B232,2013-07-23 05:20:00,
2013-07-22 22:25:00,60.0,57.7,29.96,SW,233,11.0,12.0,92,0.00,,,0.00,WeatherCatV1.14B232,2013-07-23 05:25:00,
2013-07-22 22:30:00,60.0,57.7,29.97,West,260,8.0,10.0,92,0.00,,,0.00,WeatherCatV1.14B232,2013-07-23 05:30:00,
2013-07-22 22:35:00,59.9,57.6,29.97,West,259,6.0,11.0,92,0.00,,,0.00,WeatherCatV1.14B232,2013-07-23 05:35:00,
2013-07-22 22:40:00,59.8,57.5,29.97,WSW,243,9.0,13.0,92,0.00,,,0.00,WeatherCatV1.14B232,2013-07-23 05:40:00,
2013-07-22 22:45:00,59.8,57.5,29.97,WSW,248,13.0,13.0,92,0.00,,,0.00,WeatherCatV1.14B232,2013-07-23 05:45:00,
2013-07-22 22:46:00,59.8,57.5,29.97,West,260,8.0,13.0,92,0.00,,,0.00,WeatherCatV1.14B232,2013-07-23 05:46:00,
2013-07-22 22:51:00,59.6,57.6,29.97,SW,215,7.0,12.0,93,0.00,,,0.00,WeatherCatV1.14B232,2013-07-23 05:51:00,
2013-07-22 22:56:00,59.6,57.6,29.97,SSW,202,7.0,12.0,93,0.00,,,0.00,WeatherCatV1.14B232,2013-07-23 05:56:00,
2013-07-22 23:01:00,59.7,57.7,29.96,WSW,244,11.0,14.0,93,0.00,,,0.00,WeatherCatV1.14B232,2013-07-23 06:01:00,
2013-07-22 23:06:00,59.8,57.8,29.95,WSW,240,14.0,15.0,93,0.00,,,0.00,WeatherCatV1.14B232,2013-07-23 06:06:00,
2013-07-22 23:11:00,59.8,57.5,29.95,SSW,213,16.0,17.0,92,0.00,,,0.00,WeatherCatV1.14B232,2013-07-23 06:11:00,
2013-07-22 23:16:00,59.9,57.6,29.95,WSW,251,11.0,16.0,92,0.00,,,0.00,WeatherCatV1.14B232,2013-07-23 06:16:00,
2013-07-22 23:21:00,60.0,57.4,29.94,SW,231,17.0,18.0,91,0.00,,,0.00,WeatherCatV1.14B232,2013-07-23 06:21:00,
2013-07-22 23:26:00,60.1,57.5,29.94,SW,217,15.0,20.0,91,0.00,,,0.00,WeatherCatV1.14B232,2013-07-23 06:26:00,
2013-07-22 23:31:00,60.2,57.6,29.95,SW,221,10.0,16.0,91,0.00,,,0.00,WeatherCatV1.14B232,2013-07-23 06:31:00,
2013-07-22 23:36:00,60.2,57.6,29.95,SSW,211,8.0,12.0,91,0.00,,,0.00,WeatherCatV1.14B232,2013-07-23 06:36:00,
2013-07-22 23:41:00,60.2,57.6,29.95,WSW,257,6.0,11.0,91,0.00,,,0.00,WeatherCatV1.14B232,2013-07-23 06:41:00,
2013-07-22 23:46:00,60.3,57.7,29.96,WSW,255,6.0,9.0,91,0.00,,,0.00,WeatherCatV1.14B232,2013-07-23 06:46:00,
2013-07-22 23:51:00,60.4,57.8,29.96,WSW,257,8.0,10.0,91,0.00,,,0.00,WeatherCatV1.14B232,2013-07-23 06:51:00,
2013-07-22 23:56:00,60.6,58.0,29.96,WSW,255,3.0,7.0,91,0.00,,,0.00,WeatherCatV1.14B232,2013-07-23 06:56:00,